Regional Weather Roundup
Issued by NWS

Home | Current Version | Previous Version | Graphics & Text | Print | Product List | Glossary On
Versions: 1 2 3 4 5 6 7 8 9 10 11 12 13 14 15 16 17 18 19 20 21 22 23 24 25 26 27 28 29 30 31 32 33 34 35 36 37 38 39 40 41 42 43 44 45 46 47 48 49 50
000
ASUS43 KMPX 290501
RWRMN
WEATHER ROUNDUP FOR MINNESOTA
NATIONAL WEATHER SERVICE TWIN CITIES/CHANHASSEN MN
1200 AM CDT SUN MAY 29 2016


NOTE: "FAIR" INDICATES FEW OR NO CLOUDS BELOW 12,000 FEET WITH NO
SIGNIFICANT WEATHER AND/OR OBSTRUCTIONS TO VISIBILITY. N/A MEANS
CURRENT SKY AND/OR WEATHER CONDITIONS ARE NOT AVAILABLE.

MNZ060>063-068>070-290600-
   Twin Cities Metro

CITY           SKY/WX    TMP DP  RH WIND       PRES   REMARKS
TWIN CITIES    CLOUDY    63  60  90 W3        29.82R
ST PAUL        CLOUDY    63  61  93 SW3       29.82R
CRYSTAL        CLOUDY    62  58  86 W5        29.81R
BLAINE         CLOUDY    63  63 100 W3        29.82R
EDEN PRAIRIE   CLOUDY    63  60  90 W3        29.82R FOG
SOUTH ST PAUL  CLOUDY    63  62  95 W5        29.82R
LAKE ELMO      CLOUDY    61  61 100 W3        29.83R FOG
$$
MNZ001>005-007-008-013>017-022>024-027-028-290600-
   Northwest Minnesota

CITY           SKY/WX    TMP DP  RH WIND       PRES   REMARKS
BEMIDJI        DRIZZLE   57  57  99 W5        29.83R
HALLOCK        CLOUDY    61  57  88 NE3       29.86F
ROSEAU         CLOUDY    55  52  88 N6        29.86S
WARROAD        CLOUDY    55  52  88 N8        29.86S FOG
THIEF RVR FALL CLOUDY    57  54  88 N6        29.87S
CROOKSTON      DRIZZLE   59  57  94 N3        29.87S
FOSSTON        DRIZZLE   55  55 100 N3        29.86R
DETROIT LAKES  DRIZZLE   59  57  94 NW8       29.86S
MOORHEAD       CLOUDY    61  59  94 N8        29.86F
PARK RAPIDS    CLOUDY    60  57  89 W6        29.83S
MAHNOMEN       DRIZZLE   58  57  98 NW3       29.85S
$$
MNZ006-009>011-018-025>026-290600-
   North Central Minnesota

CITY           SKY/WX    TMP DP  RH WIND       PRES   REMARKS
BAUDETTE       CLOUDY    55  53  93 NW3       29.83F
FLAG ISLAND    DRIZZLE   55  54  94 NE12      29.84F
INTL FALLS     CLOUDY    57  56  96 N7        29.81S FOG
WASKISH        DRIZZLE   55  55 100 N5        29.82F
BIG FORK       CLOUDY    59  57  94 CALM      29.81S FOG
LONGVILLE      CLOUDY    59  57  94 W3        29.82R
GRAND RAPIDS   LGT RAIN  60  59  96 CALM      29.82F FOG
CRANE LAKE     CLOUDY    57  57 100 CALM      29.82S FOG
ORR            FOG       59  55  88 CALM      29.78R VSB 1
COOK           FOG       57  57 100 CALM      29.81S VSB 1
WALKER         CLOUDY    58  57  99 CALM      29.82S
$$
MNZ012-019>021-037-290600-
   Northeast Minnesota

CITY           SKY/WX    TMP DP  RH WIND       PRES   REMARKS
DULUTH         CLOUDY    56  54  93 SE3       29.81R FOG
ELY            RAIN      59  57  94 CALM      29.80F
HIBBING        CLOUDY    58  58 100 CALM      29.80F
EVELETH        RAIN      57  55  94 CALM      29.82R
DULUTH HARBOR  FOG       50  48  93 CALM      29.82R VSB 1/2
TWO HARBORS    HAZE      57  52  82 S3        29.79R VSB 1/4
SILVER BAY     FOG       57  55  94 CALM      29.78S VSB 1/4
GRAND MARAIS     N/A     45  44  97 E3        29.81F
G MARAIS ARPRT FOG       59  55  88 NE3       29.83S VSB 3/4
$$
MNZ029>031-032-039>041-046>048-054>057-064-290600-
   West Central Minnesota

CITY           SKY/WX    TMP DP  RH WIND       PRES   REMARKS
FERGUS FALLS   LGT RAIN  61  61 100 NW9       29.83S
WHEATON        CLOUDY    63  59  88 W3        29.89R
MORRIS         LGT RAIN  61  59  94 NW7       29.86S
ALEXANDRIA     CLOUDY    60  57  89 W8        29.86S
ELBOW LAKE     DRIZZLE   58  58  99 NW6       29.86S
WADENA         CLOUDY    57  57 100 W3        29.83F
GLENWOOD       MOCLDY    61  57  88 W5        29.86S
APPLETON       MOCLDY    63  57  82 W6        29.86S
ORTONVILLE     CLOUDY    61  55  82 W7        29.87S
MADISON        CLOUDY    61  59  94 W7        29.87S
WILLMAR        CLOUDY    63  61  94 W6        29.87S
$$
MNZ033>034-036-042>043-049>051-058-059-290600-
   Central Minnesota

CITY           SKY/WX    TMP DP  RH WIND       PRES   REMARKS
ST CLOUD       CLOUDY    61  59  93 SW5       29.83R
SAUK CENTRE    CLOUDY    59  58  94 W5        29.84F
PAYNESVILLE    CLOUDY    61  60  97 W5        29.85S
AITKIN         CLOUDY    61  55  82 CALM      29.81R
PINE RIVER     CLOUDY    57  57 100 CALM      29.86S
BRAINERD       CLOUDY    59  58  96 W6        29.82F
STAPLES        CLOUDY    57  55  94 W3        29.83S
LONG PRAIRIE   CLOUDY    59  55  88 SW3       29.84F
LITTLE FALLS   CLOUDY    61  55  82 W5        29.84R
LITCHFIELD     CLOUDY    63  63 100 W3        29.85S
BUFFALO        CLOUDY    62  59  88 W3        29.84S
MAPLE LAKE     CLOUDY    63  61  94 CALM      29.84S
HUTCHINSON     CLOUDY    63  61  95 W5        29.86R
$$
MNZ037-044-045-052-053-290600-
   East Central Minnesota

CITY           SKY/WX    TMP DP  RH WIND       PRES   REMARKS
PRINCETON        N/A     63  61  94 CALM      29.83R
MORA           HVY RAIN  59  55  88 NW5       29.83S
CAMBRIDGE      CLOUDY    64  55  72 CALM      29.80S
RUSH CITY      LGT RAIN  60  58  94 CALM      29.82R
MOOSE LAKE     CLOUDY    55  54  94 CALM      29.80S
HINCKLEY       CLOUDY    61  61 100 CALM      29.81R
CLOQUET        DRIZZLE   55  54  94 CALM      29.81S
MCGREGOR       CLOUDY    59  59 100 CALM      29.82S
$$
MNZ071>073-080-081-089-090-097-098-290600-
   Southwest Minnesota

CITY           SKY/WX    TMP DP  RH WIND       PRES   REMARKS
MONTEVIDEO     CLOUDY    61  61 100 W3        29.89R
GRANITE FALLS  CLOUDY    63  61  94 SW7       29.89R
CANBY          CLOUDY    63  60  90 W7        29.89S
MARSHALL       MOCLDY    61  58  90 W6        29.89R
REDWOOD FALLS  CLOUDY    62  59  90 W7        29.86R
OLIVIA         CLOUDY    63  59  88 W6        29.86R
PIPESTONE      CLOUDY    61  57  88 W7        29.92R
WINDOM         MOCLDY    61  57  88 CALM      29.89R
WORTHINGTON    PTCLDY    59  57  93 W8        29.92R
JACKSON        CLOUDY    61  55  82 W8        29.90R
TRACY          PTCLDY    61  58  91 W5        29.89S
SLAYTON        PTCLDY    59  58  94 W8        29.92R
$$
MNZ065>067-074>077-082>085-091>093-290600-
   South Central Minnesota

CITY           SKY/WX    TMP DP  RH WIND       PRES   REMARKS
MANKATO        CLOUDY    63  57  82 W7        29.85S
NEW ULM        CLOUDY    63  61  94 NW8       29.86R
ST JAMES       CLOUDY    57  55  94 W10       29.88R
FAIRMONT       MOCLDY    61  54  77 NW7       29.87R
GLENCOE        CLOUDY    63  63  98 SW3       29.84R
FARIBAULT      CLOUDY    61  61 100 W3        29.84R
OWATONNA       CLOUDY    63  61  94 W6        29.84R FOG
WASECA         MOCLDY    59  57  94 NW3       29.86S
ALBERT LEA     PTCLDY    63  61  94 W3        29.84S
$$
MNZ078>079-086>088-094>096-290600-
   Southeast Minnesota

CITY           SKY/WX    TMP DP  RH WIND       PRES   REMARKS
ROCHESTER      CLOUDY    63  61  93 SW7       29.86R
RED WING       RAIN      64  63  94 CALM      29.81R
STANTON        CLOUDY    63  60  92 W5        29.82R FOG
DODGE CENTER   CLOUDY    63  61  94 CALM      29.84R
WINONA         CLOUDY    61  61 100 CALM      29.83R
AUSTIN         PTCLDY    61  59  94 CALM      29.84R
PRESTON        CLOUDY    62  58  88 S6        29.84S
$$
ABBREVIATIONS USED IN REMARKS
   TC - TEMPERATURES IN CELSIUS
  WCI - WIND CHILL INDEX
   HX - HEAT INDEX
  VSB - VISIBILITY
$$



USA.gov is the U.S. government's official web portal to all federal, state and local government web resources and services.